[[{"header":{"parameterUnit":"m.s-1","parameterCategory":1,"la1":30.2991,"la2":30.254,"lo1":-89.0895,"lo2":-89.0444,"dy":0.0017,"dx":0.0017,"nx":28,"ny":28,"refTime":"2025-11-24T03:00:00:Z","depth":0,"parameterNumber":2,"parameterNumberName":"U-component_of_WINDS"},"data":[0,0,0,0,0,0,0,0,0,0,0,0,0,0,0,0,0,0,0,0,0,0,0,0,0,0,0,0,0,0,0,0,0,0,0,0,0,0,0,0,0,0,0,0,0,0,0,0,0,0,0,0,0,0,0,0,0,0,-0.2761,-0.2761,0,-0.2783,-0.2783,-0.2783,-0.2803,-0.2803,-0.2803,-0.2804,-0.2827,-0.2827,-0.2828,0,0,0,0,0,0,0,0,0,0,0,0,0,-0.2738,-0.2738,-0.2761,-0.2761,-0.2762,-0.2783,-0.2783,-0.2783,-0.2803,-0.2803,-0.2803,-0.2804,-0.2827,-0.2827,-0.2828,0,0,0,0,0,0,0,0,0,0,0,0,0,-0.2753,-0.2738,-0.2761,-0.2774,-0.2775,-0.2783,-0.2783,-0.2784,-0.2803,-0.2803,-0.2804,-0.2804,-0.2827,-0.2827,-0.2828,-0.2825,0,0,-0.283,-0.283,0,0,0,0,0,0,0,0,-0.2752,-0.2753,-0.2772,-0.2773,-0.2775,-0.2791,-0.2784,-0.2797,-0.2803,-0.2792,-0.2804,-0.2804,-0.2815,-0.2816,-0.282,-0.2826,-0.2827,-0.283,-0.283,-0.2831,-0.2831,0,0,0,0,0,0,0,-0.2751,-0.2753,-0.277,-0.2772,-0.2774,-0.2779,-0.2781,-0.2786,-0.2801,-0.2793,-0.2795,-0.2797,-0.2816,-0.2819,-0.282,-0.2827,-0.283,-0.283,-0.2831,-0.2831,-0.2833,-0.2832,0,0,0,0,0,0,-0.2748,-0.2752,-0.2769,-0.277,-0.2764,-0.2779,-0.2782,-0.2785,-0.2801,-0.2804,-0.2797,-0.2798,-0.2818,-0.282,-0.2821,-0.2819,-0.2831,-0.2831,-0.2831,-0.2833,-0.2833,-0.2832,0,0,0,0,0,0,-0.2747,-0.2749,-0.2768,-0.2761,-0.2764,-0.2779,-0.2783,-0.2785,-0.2789,-0.2804,-0.2807,-0.2797,-0.2818,-0.282,-0.2824,-0.282,-0.2831,-0.2832,-0.2833,-0.2833,-0.2832,-0.2814,0,0,0,0,0,0,-0.2746,-0.2749,-0.2747,-0.2761,-0.2765,-0.277,-0.2782,-0.2786,-0.279,-0.2791,-0.2805,-0.2808,-0.2819,-0.2823,-0.2824,-0.2821,-0.2832,-0.2834,-0.2833,-0.2833,-0.2815,-0.2813,-0.2811,0,0,0,0,0,-0.2745,-0.2741,-0.2747,-0.2749,-0.2763,-0.277,-0.2772,-0.2783,-0.2789,-0.2788,-0.2798,-0.2808,-0.282,-0.2823,-0.2825,-0.2822,-0.2834,-0.2833,-0.2833,-0.2816,-0.2813,-0.2811,0,0,0,0,0,0,-0.2727,-0.2743,-0.275,-0.275,-0.2758,-0.2773,-0.2772,-0.278,-0.2787,-0.2789,-0.2804,-0.2807,-0.2808,-0.2816,-0.2818,-0.282,-0.2828,-0.2828,-0.2815,-0.2812,-0.2811,-0.2809,-0.2833,0,0,0,0,0,-0.2722,-0.2726,-0.2741,-0.2739,-0.2743,-0.2757,-0.276,-0.2769,-0.2778,-0.2781,-0.2791,-0.28,-0.2806,-0.281,-0.2816,-0.2816,-0.2819,-0.2815,-0.2813,-0.2811,-0.281,-0.2811,-0.2809,-0.283,-0.283,-0.283,0,0,-0.2714,-0.2724,-0.2725,-0.2736,-0.2743,-0.2747,-0.276,-0.2763,-0.2766,-0.2782,-0.2786,-0.2793,-0.2804,-0.2806,-0.2807,-0.2812,-0.2806,-0.281,-0.2809,-0.2809,-0.281,-0.2808,-0.2806,-0.2829,-0.2829,-0.2829,0,0,-0.27,-0.2708,-0.2708,-0.2715,-0.2726,-0.2735,-0.2735,-0.2748,-0.2754,-0.2758,-0.277,-0.2774,-0.2784,-0.2791,-0.2796,-0.2786,-0.2795,-0.2788,-0.2777,-0.2778,-0.2776,-0.2775,-0.2771,-0.2769,-0.2787,-0.2787,-0.2787,0,-0.2689,-0.2694,-0.2707,-0.2709,-0.2714,-0.2729,-0.2729,-0.2735,-0.2748,-0.2751,-0.2756,-0.2769,-0.2777,-0.2781,-0.2778,-0.2782,-0.2782,-0.2786,-0.2775,-0.2774,-0.2773,-0.2769,-0.2768,-0.2786,-0.2786,-0.2786,-0.2786,0,-0.2679,-0.2683,-0.2681,-0.2693,-0.2697,-0.2698,-0.2712,-0.2715,-0.2723,-0.2732,-0.2736,-0.2747,-0.2756,-0.2757,-0.2766,-0.2762,-0.2765,-0.2772,-0.2781,-0.277,-0.2767,-0.2765,-0.2785,-0.2785,-0.2785,-0.2786,0,0,-0.2654,-0.2672,-0.2671,-0.2677,-0.269,-0.2693,-0.2695,-0.2704,-0.2706,-0.2714,-0.2717,-0.2725,-0.2732,-0.2738,-0.2747,-0.2748,-0.2739,-0.2756,-0.2756,-0.2752,-0.2736,-0.2729,-0.2727,-0.2745,-0.2745,-0.2745,-0.2735,0,-0.2642,-0.2646,-0.2658,-0.2659,-0.2662,-0.2677,-0.2679,-0.2687,-0.2696,-0.2701,-0.271,-0.2716,-0.2725,-0.2728,-0.2729,-0.274,-0.2736,-0.2741,-0.2748,-0.2748,-0.2744,-0.2726,-0.2719,-0.2709,-0.2733,-0.2733,-0.2733,0,-0.2628,-0.2635,-0.2636,-0.265,-0.2652,-0.2653,-0.2662,-0.2666,-0.2676,-0.2683,-0.2689,-0.2699,-0.2703,-0.2712,-0.2717,-0.272,-0.2724,-0.2729,-0.2729,-0.273,-0.2739,-0.2726,-0.2706,-0.2704,-0.2731,-0.2732,-0.2732,0,-0.2609,-0.2619,-0.2621,-0.2625,-0.2641,-0.2642,-0.2648,-0.2659,-0.2663,-0.2671,-0.2674,-0.2682,-0.2687,-0.2693,-0.2706,-0.2711,-0.271,-0.2719,-0.2715,-0.2715,-0.2714,-0.2713,-0.2694,-0.2717,-0.2717,-0.2717,-0.2717,0,-0.2595,-0.2595,-0.2613,-0.2614,-0.2614,-0.2628,-0.2629,-0.2637,-0.2646,-0.2649,-0.2663,-0.2666,-0.2682,-0.2687,-0.2697,-0.27,-0.2702,-0.2707,-0.271,-0.2706,-0.2705,-0.2708,-0.2709,-0.2716,-0.2716,-0.2716,-0.2717,0,-0.2573,-0.2585,-0.2588,-0.2603,-0.2606,-0.2606,-0.2619,-0.2621,-0.263,-0.2634,-0.2636,-0.2651,-0.2657,-0.2671,-0.2681,-0.2688,-0.2688,-0.2693,-0.2684,-0.2686,-0.2681,-0.2681,-0.2662,-0.266,-0.2684,-0.2684,-0.2684,0,-0.2563,-0.2563,-0.2578,-0.2581,-0.2586,-0.2591,-0.2595,-0.2609,-0.2614,-0.2625,-0.2626,-0.2634,-0.264,-0.265,-0.2662,-0.267,-0.2675,-0.2668,-0.2676,-0.2672,-0.2675,-0.2674,-0.2674,-0.2666,-0.2666,-0.2665,-0.2665,0,-0.2543,-0.2549,-0.2555,-0.2562,-0.2567,-0.2574,-0.2581,-0.2583,-0.2599,-0.2603,-0.261,-0.2615,-0.2626,-0.2633,-0.2643,-0.265,-0.266,-0.2662,-0.2662,-0.2657,-0.2652,-0.2655,-0.2679,-0.2663,-0.2663,-0.2663,-0.2663,-0.2663,-0.2527,-0.2528,-0.2538,-0.2544,-0.2551,-0.2558,-0.256,-0.257,-0.2575,-0.2585,-0.2593,-0.2599,-0.261,-0.2624,-0.2631,-0.2636,-0.2641,-0.264,-0.264,-0.2639,-0.2637,-0.2652,-0.2638,-0.2638,-0.2638,-0.2638,-0.2638,0,-0.2507,-0.2515,-0.252,-0.253,-0.2534,-0.2543,-0.2552,-0.2556,-0.2561,-0.257,-0.2576,-0.2584,-0.2591,-0.2604,-0.2612,-0.2614,-0.2619,-0.2616,-0.2616,-0.2617,-0.2632,-0.2632,-0.2612,-0.2612,-0.2612,-0.2612,-0.2612,-0.2612,-0.2498,-0.25,-0.2507,-0.2513,-0.252,-0.2526,-0.253,-0.2537,-0.2544,-0.2552,-0.2558,-0.2566,-0.2577,-0.2586,-0.2593,-0.2597,-0.2599,-0.2595,-0.26,-0.2614,-0.2616,-0.2618,-0.2618,-0.2595,-0.2595,-0.2584,-0.2584,-0.2584]},{"header":{"parameterUnit":"m.s-1","parameterCategory":1,"la1":30.2991,"la2":30.254,"lo1":-89.0895,"lo2":-89.0444,"dy":0.0017,"dx":0.0017,"nx":28,"ny":28,"refTime":"2025-11-24T03:00:00:Z","depth":0,"parameterNumber":3,"parameterNumberName":"V-component_of_WINDS"},"data":[0,0,0,0,0,0,0,0,0,0,0,0,0,0,0,0,0,0,0,0,0,0,0,0,0,0,0,0,0,0,0,0,0,0,0,0,0,0,0,0,0,0,0,0,0,0,0,0,0,0,0,0,0,0,0,0,0,0,3.752,3.752,0,3.7509,3.7509,3.7509,3.748,3.7479,3.7478,3.7478,3.7466,3.7466,3.7467,0,0,0,0,0,0,0,0,0,0,0,0,0,3.7515,3.7515,3.752,3.752,3.752,3.7509,3.7509,3.7509,3.748,3.7479,3.7478,3.7478,3.7466,3.7466,3.7467,0,0,0,0,0,0,0,0,0,0,0,0,0,3.7512,3.7515,3.752,3.7504,3.7502,3.751,3.7509,3.7509,3.748,3.7479,3.7478,3.7477,3.7466,3.7466,3.7467,3.7488,0,0,3.7468,3.7468,0,0,0,0,0,0,0,0,3.7512,3.7512,3.7506,3.7505,3.7503,3.7495,3.7503,3.7502,3.748,3.7488,3.7478,3.7477,3.7476,3.7476,3.7476,3.7488,3.7487,3.7468,3.7468,3.7469,3.7469,0,0,0,0,0,0,0,3.7512,3.7513,3.7516,3.7506,3.7504,3.7497,3.7496,3.7503,3.7488,3.7488,3.7485,3.7485,3.7475,3.7476,3.7476,3.7487,3.7468,3.7468,3.7469,3.7469,3.7519,3.752,0,0,0,0,0,0,3.7515,3.7513,3.7516,3.7515,3.7506,3.7498,3.7496,3.7499,3.7488,3.7485,3.7486,3.7483,3.7475,3.7475,3.7475,3.7501,3.7469,3.7469,3.7469,3.7518,3.7519,3.752,0,0,0,0,0,0,3.7515,3.7516,3.7517,3.7514,3.7513,3.7499,3.7502,3.7499,3.7499,3.7486,3.7483,3.7489,3.7475,3.7474,3.7486,3.75,3.7469,3.7469,3.7516,3.7518,3.7519,3.7553,0,0,0,0,0,0,3.7515,3.7516,3.7524,3.7514,3.7513,3.7528,3.7503,3.7499,3.75,3.7497,3.7488,3.7486,3.7474,3.7485,3.7486,3.75,3.747,3.7515,3.7517,3.7519,3.7551,3.7556,3.756,0,0,0,0,0,3.7515,3.7533,3.7524,3.7525,3.7523,3.7528,3.7528,3.7514,3.7501,3.7509,3.7501,3.7486,3.7499,3.7487,3.7488,3.7502,3.7514,3.7516,3.7519,3.7549,3.7555,3.756,0,0,0,0,0,0,3.7544,3.7531,3.7521,3.7537,3.7534,3.7523,3.7533,3.7521,3.7521,3.7518,3.7501,3.7499,3.7514,3.7509,3.7496,3.7524,3.7504,3.7507,3.7526,3.7532,3.7537,3.7538,3.747,0,0,0,0,0,3.7552,3.7557,3.7546,3.7561,3.756,3.7547,3.7549,3.7539,3.7535,3.7533,3.7526,3.7523,3.7526,3.7529,3.7531,3.755,3.7548,3.756,3.7565,3.7569,3.7572,3.7583,3.7589,3.7528,3.7528,3.7528,0,0,3.7569,3.7563,3.7567,3.7567,3.7563,3.757,3.7546,3.7553,3.7558,3.7534,3.7545,3.754,3.7535,3.7551,3.7558,3.7548,3.7588,3.7572,3.7575,3.7576,3.7586,3.7592,3.7597,3.753,3.7529,3.7529,0,0,3.7603,3.7598,3.7611,3.7609,3.7604,3.7596,3.7599,3.7591,3.7587,3.7598,3.758,3.7586,3.7591,3.7589,3.7589,3.7625,3.7612,3.7626,3.7651,3.7662,3.7667,3.7672,3.7686,3.7691,3.7629,3.7629,3.7629,0,3.7624,3.7634,3.7619,3.7629,3.7629,3.7609,3.7622,3.762,3.7617,3.7618,3.7607,3.7615,3.761,3.7626,3.7635,3.7635,3.7639,3.7627,3.7668,3.7672,3.7676,3.7689,3.7695,3.7631,3.7631,3.763,3.763,0,3.7661,3.7668,3.7679,3.7678,3.7679,3.769,3.7678,3.7682,3.7672,3.7665,3.7677,3.7671,3.7673,3.7675,3.7665,3.7691,3.7685,3.7671,3.7651,3.7684,3.7696,3.7701,3.7634,3.7633,3.7632,3.7632,0,0,3.7713,3.7704,3.7709,3.7709,3.7703,3.7708,3.7719,3.7721,3.7726,3.7724,3.7734,3.774,3.7728,3.7727,3.7717,3.7727,3.7758,3.7712,3.7712,3.7722,3.7788,3.78,3.7806,3.7749,3.775,3.7751,3.7789,0,3.7747,3.7765,3.7753,3.7774,3.7781,3.7762,3.7772,3.777,3.7764,3.7769,3.7762,3.7768,3.775,3.775,3.7759,3.7752,3.7771,3.7749,3.7759,3.7759,3.7762,3.7812,3.7824,3.7861,3.7794,3.7795,3.7795,0,3.7788,3.779,3.7812,3.7807,3.781,3.7819,3.7821,3.7826,3.7824,3.7819,3.782,3.7807,3.7818,3.7798,3.7814,3.7799,3.7802,3.78,3.7801,3.7802,3.778,3.7816,3.7872,3.7878,3.7802,3.7802,3.7801,0,3.7826,3.7834,3.7849,3.7849,3.7843,3.785,3.7848,3.7845,3.7848,3.7849,3.7851,3.7854,3.7856,3.7859,3.7848,3.7834,3.7866,3.7844,3.7863,3.7863,3.7871,3.7871,3.7929,3.7871,3.7871,3.787,3.787,0,3.7866,3.788,3.7866,3.7875,3.7891,3.7877,3.7894,3.7889,3.7887,3.7895,3.7879,3.7887,3.7871,3.7878,3.7869,3.7885,3.7885,3.7882,3.788,3.7884,3.7885,3.7887,3.7885,3.7872,3.7872,3.7871,3.7871,0,3.7911,3.7902,3.7917,3.7911,3.791,3.7922,3.7917,3.7925,3.7918,3.7929,3.7931,3.7921,3.7928,3.7917,3.7923,3.7917,3.7939,3.7932,3.794,3.7939,3.7959,3.7958,3.8022,3.803,3.7965,3.7965,3.7966,0,3.7938,3.7949,3.7945,3.7949,3.7949,3.7956,3.796,3.7947,3.7951,3.795,3.7959,3.7965,3.797,3.7983,3.7976,3.7981,3.7975,3.7997,3.7975,3.798,3.7977,3.7977,3.7979,3.8001,3.8002,3.8003,3.8003,0,3.7987,3.7982,3.7988,3.7993,3.7998,3.8,3.8002,3.8007,3.7993,3.7999,3.8007,3.801,3.8017,3.8024,3.8028,3.8025,3.8013,3.801,3.8015,3.802,3.8026,3.8025,3.7954,3.8009,3.8008,3.8008,3.8008,3.8007,3.8025,3.8035,3.8034,3.8041,3.8041,3.8044,3.8052,3.8047,3.8054,3.8059,3.8051,3.8061,3.806,3.8064,3.8063,3.8072,3.8062,3.8069,3.807,3.8073,3.8077,3.8023,3.8072,3.8072,3.8071,3.8071,3.8071,0,3.8075,3.8074,3.8081,3.8084,3.8091,3.8078,3.808,3.8086,3.8096,3.8096,3.8101,3.8111,3.8118,3.8112,3.8118,3.8126,3.8121,3.8129,3.8129,3.8129,3.8084,3.808,3.8133,3.8133,3.8133,3.8133,3.8133,3.8133,3.8101,3.8118,3.8114,3.8131,3.8129,3.814,3.8142,3.8145,3.8145,3.8158,3.8164,3.816,3.8158,3.8164,3.8171,3.8169,3.8173,3.8183,3.8179,3.8138,3.8132,3.8126,3.8122,3.8183,3.8183,3.8223,3.8224,3.8224]}]]